Location: Ariel
(45.9570°N, 122.5700°W)
Time: 22:01:37
(UTC-07:00)

A-11 Canister half - Pass Details

Date: 01 September 2019
Orbit: 1514 x 1686 km, 47.2° (Epoch: 15 September)

Event Time Altitude Azimuth Distance (km) Brightness Sun altitude
Rises 21:16:42 0° 288° (WNW) 4,712 13.3 -15.1°
Reaches altitude 10° 21:19:43 10° 287° (WNW) 3,747 12.3 -15.6°
Maximum altitude 21:29:11 73° 205° (SSW) 1,659 9.1 -17.0°
Enters shadow 21:35:44 24° 126° (SE) 2,881 9.8 -17.9°
